Weather History for Abingdon, VA

Change the Weather History Date:

Friday, January 4, 2013

  Actual Average (KTRI) Record (KTRI)
Temperature  
Mean Temperature 29 °F 35 °F  
Max Temperature 37 °F 45 °F 75 °F (1950)
Min Temperature 22 °F 25 °F 1 °F (1969)
Degree Days  
Heating Degree Days 36 30  
Month to date heating degree days 120  
Since 1 July heating degree days 1849  
Cooling Degree Days 0 0  
Month to date cooling degree days 0  
Year to date cooling degree days 0  
Moisture  
Dew Point 24 °F    
Average Humidity 76    
Maximum Humidity 95    
Minimum Humidity 62    
Precipitation  
Precipitation 0.00 in 0.11 in 0.64 in (1957)
Month to date precipitation 0.41  
Year to date precipitation 0.41  
Snow  
Snow 0.00 in 0.10 in - ()
Month to date snowfall 0.5  
Since 1 July snowfall 3.2  
Snow Depth -    
Sea Level Pressure  
Sea Level Pressure 30.30 in    
Wind  
Wind Speed 4 mph (WNW)    
Max Wind Speed 12 mph    
Max Gust Speed 17 mph    
Visibility 10 miles    
Events      
T = Trace of Precipitation, MM = Missing Value Source: NWS Daily Summary

Daily Weather History Graph

Daily Weather History Graph

Search for Another Location

Airport:

Trip Planner

Search our weather history database for the weather conditions in past years. The results will help you decide how hot, cold, wet, or windy it might be!

Date:

Astronomy

Jan. 04, 2013 Rise Set
Actual Time 7:40 AM EST 5:25 PM EST
Civil Twilight 7:12 AM EST 5:54 PM EST
Nautical Twilight 6:40 AM EST 6:26 PM EST
Astronomical Twilight 6:08 AM EST 6:57 PM EST
Moon No Moon Rise 11:35 AM EST (1/4)
Length of Visible Light 10h 42m
Length of Day
9h 44m
Waning Gibbous, 55% of the Moon is Illuminated
Jan 4
Waning Gibbous
Jan 4
Last Quarter
Jan 11
New
Jan 18
First Quarter
Jan 26
Full

Hourly Weather History & Observations

Time (EST) Temp. Windchill Dew Point Humidity Pressure Visibility Wind Dir Wind Speed Gust Speed Precip Events Conditions
12:15 AM 28.0 °F 24.2 °F 26.1 °F 92% 30.26 in 10.0 mi West 3.5 mph - N/A   Clear
12:35 AM 27.7 °F - 25.7 °F 92% 30.27 in 10.0 mi Calm Calm - N/A   Clear
12:55 AM 27.3 °F 23.4 °F 26.1 °F 95% 30.27 in 10.0 mi West 3.5 mph - N/A   Clear
1:15 AM 29.5 °F 24.5 °F 24.1 °F 80% 30.28 in 10.0 mi WNW 4.6 mph - N/A   Clear
1:35 AM 29.1 °F 25.4 °F 23.2 °F 78% 30.28 in 10.0 mi NW 3.5 mph - N/A   Clear
1:55 AM 29.8 °F - 23.0 °F 76% 30.28 in 10.0 mi Calm Calm - N/A   Clear
2:15 AM 29.1 °F 24.1 °F 22.8 °F 77% 30.28 in 10.0 mi NW 4.6 mph - N/A   Clear
2:35 AM 29.1 °F 25.4 °F 22.8 °F 77% 30.28 in 10.0 mi NW 3.5 mph - N/A   Clear
2:55 AM 26.6 °F - 22.5 °F 84% 30.28 in 10.0 mi Calm Calm - N/A   Clear
3:15 AM 27.1 °F 23.2 °F 22.5 °F 83% 30.28 in 10.0 mi NNW 3.5 mph - N/A   Clear
3:35 AM 28.0 °F 24.2 °F 21.9 °F 78% 30.29 in 10.0 mi NW 3.5 mph - N/A   Clear
3:55 AM 27.5 °F 22.2 °F 22.5 °F 81% 30.29 in 10.0 mi NW 4.6 mph - N/A   Clear
4:15 AM 28.2 °F 23.1 °F 22.1 °F 78% 30.28 in 10.0 mi NW 4.6 mph - N/A   Clear
4:35 AM 25.2 °F 20.9 °F 21.9 °F 87% 30.28 in 10.0 mi NNW 3.5 mph - N/A   Clear
7:15 AM 23.2 °F - 21.4 °F 93% 30.30 in 10.0 mi Calm Calm - N/A   Clear
7:35 AM 22.3 °F - 20.7 °F 93% 30.30 in 10.0 mi Calm Calm - N/A   Clear
7:55 AM 23.0 °F - 21.2 °F 93% 30.30 in 10.0 mi Calm Calm - N/A   Clear
8:55 AM 27.0 °F 21.6 °F 23.9 °F 88% 30.33 in 10.0 mi West 4.6 mph - N/A   Clear
9:15 AM 28.8 °F 22.6 °F 24.8 °F 85% 30.33 in 10.0 mi West 5.8 mph - N/A   Clear
9:35 AM 29.3 °F 22.3 °F 26.1 °F 88% 30.34 in 10.0 mi West 6.9 mph - N/A   Clear
9:55 AM 30.2 °F 23.4 °F 26.8 °F 87% 30.34 in 10.0 mi West 6.9 mph - N/A   Clear
10:15 AM 31.1 °F 23.1 °F 27.5 °F 87% 30.34 in 10.0 mi WSW 9.2 mph - N/A   Clear
10:35 AM 32.0 °F 27.5 °F 27.0 °F 82% 30.33 in 10.0 mi West 4.6 mph - N/A   Clear
10:55 AM 32.9 °F 26.7 °F 26.6 °F 78% 30.33 in 10.0 mi West 6.9 mph - N/A   Clear
11:15 AM 33.3 °F 26.4 °F 27.0 °F 78% 30.33 in 10.0 mi WSW 8.1 mph - N/A   Clear
11:35 AM 34.7 °F 29.6 °F 26.4 °F 72% 30.33 in 10.0 mi West 5.8 mph - N/A   Scattered Clouds
11:55 AM 34.7 °F 28.1 °F 24.4 °F 66% 30.32 in 10.0 mi WNW 8.1 mph - N/A   Scattered Clouds
12:15 PM 35.2 °F 28.1 °F 24.1 °F 64% 30.31 in 10.0 mi NW 9.2 mph - N/A   Scattered Clouds
12:35 PM 34.5 °F 28.6 °F 24.1 °F 66% 30.30 in 10.0 mi NW 6.9 mph - N/A   Clear
12:55 PM 36.0 °F 29.0 °F 24.4 °F 63% 30.30 in 10.0 mi WNW 9.2 mph - N/A   Scattered Clouds
1:15 PM 36.5 °F 29.7 °F 24.6 °F 62% 30.28 in 10.0 mi NW 9.2 mph 17.3 mph N/A   Scattered Clouds
1:35 PM 36.5 °F 29.7 °F 24.8 °F 63% 30.28 in 10.0 mi NW 9.2 mph - N/A   Mostly Cloudy
1:55 PM 36.0 °F 31.1 °F 25.0 °F 64% 30.27 in 10.0 mi WNW 5.8 mph - N/A   Overcast
2:15 PM 35.6 °F 29.2 °F 24.6 °F 64% 30.26 in 10.0 mi WNW 8.1 mph - N/A   Overcast
2:35 PM 35.6 °F 29.9 °F 24.8 °F 65% 30.26 in 10.0 mi WNW 6.9 mph 16.1 mph N/A   Overcast
2:55 PM 35.1 °F 27.9 °F 24.8 °F 66% 30.27 in 10.0 mi WNW 9.2 mph - N/A   Overcast
3:15 PM 35.2 °F 27.6 °F 25.5 °F 68% 30.29 in 10.0 mi WNW 10.4 mph 17.3 mph N/A   Overcast
3:35 PM 36.3 °F 28.4 °F 25.3 °F 64% 30.28 in 10.0 mi West 11.5 mph - N/A   Scattered Clouds
3:55 PM 36.1 °F 29.3 °F 25.2 °F 64% 30.28 in 10.0 mi WNW 9.2 mph - N/A   Clear
4:15 PM 36.5 °F 31.0 °F 25.2 °F 64% 30.28 in 10.0 mi West 6.9 mph - N/A   Clear
4:35 PM 35.8 °F 28.8 °F 25.3 °F 66% 30.29 in 10.0 mi WNW 9.2 mph - N/A   Scattered Clouds
4:55 PM 35.4 °F 29.0 °F 25.0 °F 66% 30.28 in 10.0 mi WNW 8.1 mph - N/A   Mostly Cloudy
5:15 PM 34.9 °F 29.0 °F 24.8 °F 67% 30.29 in 10.0 mi West 6.9 mph - N/A   Scattered Clouds
5:35 PM 34.2 °F 29.0 °F 24.8 °F 69% 30.30 in 10.0 mi WNW 5.8 mph - N/A   Mostly Cloudy
6:15 PM 32.5 °F 27.1 °F 24.6 °F 73% 30.31 in 10.0 mi West 5.8 mph - N/A   Scattered Clouds
6:35 PM 32.7 °F 29.6 °F 24.8 °F 73% 30.32 in 10.0 mi West 3.5 mph - N/A   Mostly Cloudy
6:55 PM 32.5 °F 29.3 °F 24.6 °F 73% 30.32 in 10.0 mi WNW 3.5 mph - N/A   Overcast
7:15 PM 31.8 °F 28.5 °F 24.8 °F 75% 30.33 in 10.0 mi NNW 3.5 mph - N/A   Mostly Cloudy
7:55 PM 32.0 °F 25.6 °F 23.9 °F 72% 30.34 in 10.0 mi NNW 6.9 mph - N/A   Clear
8:15 PM 32.2 °F - 23.2 °F 69% 30.33 in 10.0 mi Calm Calm - N/A   Scattered Clouds
8:55 PM 32.9 °F - 23.0 °F 67% 30.33 in 10.0 mi Calm Calm - N/A   Overcast
9:15 PM 32.5 °F 27.1 °F 23.0 °F 68% 30.33 in 10.0 mi West 5.8 mph - N/A   Overcast
9:35 PM 32.2 °F 27.7 °F 23.0 °F 69% 30.32 in 10.0 mi West 4.6 mph - N/A   Mostly Cloudy
9:55 PM 31.6 °F 26.0 °F 23.0 °F 70% 30.33 in 10.0 mi West 5.8 mph - N/A   Scattered Clouds
10:15 PM 30.9 °F 26.2 °F 22.8 °F 72% 30.32 in 10.0 mi West 4.6 mph - N/A   Clear
10:35 PM 30.0 °F 26.5 °F 23.2 °F 76% 30.32 in 10.0 mi West 3.5 mph - N/A   Clear
10:55 PM 29.8 °F - 23.0 °F 76% 30.33 in 10.0 mi Calm Calm - N/A   Clear
11:15 PM 28.0 °F 24.2 °F 23.0 °F 81% 30.33 in 10.0 mi NW 3.5 mph - N/A   Clear
11:35 PM 28.6 °F 24.8 °F 23.2 °F 80% 30.34 in 10.0 mi NW 3.5 mph - N/A   Clear
11:55 PM 26.6 °F - 22.8 °F 86% 30.34 in 10.0 mi Calm Calm - N/A   Clear